Regional Weather Roundup
Issued by NWS Newport/Morehead, NC

Current Version | Previous Version | Graphics & Text | Print | Product List | Glossary Off
Versions: 1 2 3 4 5 6 7 8 9 10 11 12 13 14 15 16 17 18 19 20 21 22 23 24 25 26 27 28 29 30 31 32 33 34 35 36 37 38 39 40 41 42 43 44 45 46 47 48 49 50

914
ASUS42 KMHX 201812
RWRMHX
WEATHER ROUNDUP FOR EASTERN NORTH CAROLINA
NATIONAL WEATHER SERVICE NEWPORT/MOREHEAD CITY NC
100 PM EST FRI JAN 20 2017

NOTE: "FAIR" INDICATES FEW OR NO CLOUDS BELOW 12,000 FEET
WITH NO SIGNIFICANT WEATHER AND/OR OBSTRUCTIONS TO VISIBILITY

NCZ015>017-031-032-045>047-102-103-201900-
NORTH COAST

CITY           SKY/WX    TMP DP  RH WIND       PRES   REMARKS
EDENTON        CLOUDY    53  49  89 CALM      29.89F
ELIZABETH CITY LGT RAIN  51  46  83 N3        29.91F
KITTY HAWK     NOT AVBL
MANTEO         CLOUDY    53  46  77 E6        29.88F

$$

NCZ045>047-081-094-103-104-201900-
CENTRAL COAST

CITY           SKY/WX    TMP DP  RH WIND       PRES   REMARKS
FRISCO         PTSUNNY   65  54  67 SE6       29.87F HAZE

$$

NCZ095-097-098-100-101-201900-
SOUTHERN COAST

CITY           SKY/WX    TMP DP  RH WIND       PRES   REMARKS
BEAUFORT       CLOUDY    71  63  75 S12       29.85F
CEDAR ISLAND   NOT AVBL
JACKSONVILLE   NOT AVBL
PINEY ISLAND   NOT AVBL
WILMINGTON     CLOUDY    71  59  65 SW10      29.86F


$$

NCZ011>013-027>030-043-044-078>080-089-090>093-098-201900-
COASTAL PLAIN

CITY           SKY/WX    TMP DP  RH WIND       PRES   REMARKS
AHOSKIE        HVY RAIN  47  47  97 CALM      29.90F
CLINTON        PTSUNNY   67  58  72 S3        29.86F
ELIZABETHTOWN  PTSUNNY   73  60  63 SW7       29.84F
GOLDSBORO      PTSUNNY   64  58  80 CALM      29.83F
GREENVILLE     CLOUDY    55  54  94 SE3       29.89F
HAVELOCK       CLOUDY    69  60  73 S5        29.86F
KENANSVILLE    CLOUDY    64  55  72 CALM      29.86F
KINSTON        CLOUDY    63  54  72 S7        29.86F
NEW BERN       CLOUDY    63  54  72 SE5       29.86F
RICHLANDS      CLOUDY    66  58  75 S5        29.86F
ROCKY MOUNT    CLOUDY    53  52  96 NE3       29.87F
WASHINGTON     CLOUDY    57  47  69 SE9         N/A
WHITEVILLE     PTSUNNY   72  58  62 SW8       29.85F

$$

AMZ130-135-150-152-154-156-158-170-250-252-270-ANZ085-086-088-633-658-670-201900-
MARINE OBSERVATIONS

STATION/POSITION TIME  TEMP    WIND        PRES    WAVE   SWELL
                       AIR SEA DIR/SP/G            HT/PER HT/PER
                 (UTC) (F)     (DEG/KT/KT) (MB)    (FT/S) (FT/S)
CHESAPEAKE LIGHT NOT AVBL
64 E VA BEACH    1750   54 58   60/  6/  8 1012.7    5/12   5/12
DUCK             1742   49 45   90/  9/ 10 1011.7
2 E DUCK         1730      45                N/A     3/13   2/13
OREGON INLET     1742   50 49   50/  5/  7 1012.0
13E OREGON INLT  NOT AVBL
HATTERAS CG      1742   61 54  120/  4/  6 1011.3
DIAMOND BUOY     1750   69 76  180/ 14/ 17 1011.7    5/12   5/12
CAPE LOOKOUT     1700   66     150/  7/  8 1011.8
BEAUFORT LAB     1742   65 50  180/  7/  9 1010.0
30 SE NEW RVR IN 1708   66 65  220/  8/ 12 1011.8
30 SE NEW RVR IN 1743      65                N/A     4/13   3/13
27 SE WRIGHTSVLE 1708   70 71  230/ 12/ 16 1011.5
5 SE WRIGHTSVLE  1708   55     340/  2/  4 1011.8
225 S CAPE HAT   1750   70 71  150/ 14/ 17 1013.4    5/13   5/13
41 SE CHARLESTON 1650   71 71  230/ 16/ 19 1012.1    2/ 7   2/ 7

$$




USA.gov is the U.S. government's official web portal to all federal, state and local government web resources and services.